| time (UTC) | temp F | wind direction | speed MPH | gust MPH | rain 1hr in | rain 24hr in | rain mn in | humidity % | barometer mb |
| 20260904141101 | 68 | 281 | 7.0 | 14.0 | 0.00 | 0.11 | 0.11 | 83 | 1011.7 |
| 20260904140059 | 68 | 293 | 10.0 | 17.0 | 0.00 | 0.11 | 0.11 | 82 | 1011.6 |
| 20260904135600 | 68 | 272 | 9.0 | 18.0 | 0.00 | 0.11 | 0.11 | 82 | 1011.6 |
| 20260904135101 | 68 | 293 | 12.0 | 25.0 | 0.00 | 0.11 | 0.11 | 81 | 1011.7 |
| 20260904134600 | 68 | 288 | 5.0 | 20.0 | 0.00 | 0.11 | 0.11 | 82 | 1011.7 |
| 20260904133100 | 68 | 289 | 8.0 | 16.0 | 0.00 | 0.11 | 0.11 | 84 | 1011.2 |
| 20260904132559 | 68 | 273 | 9.0 | 18.0 | 0.00 | 0.11 | 0.11 | 85 | 1011.3 |
| 20260904132059 | 67 | 275 | 9.0 | 15.0 | 0.00 | 0.11 | 0.11 | 86 | 1011.2 |
| 20260904131559 | 67 | 269 | 7.0 | 15.0 | 0.00 | 0.11 | 0.11 | 86 | 1011.1 |
| 20260904131101 | 67 | 257 | 5.0 | 17.0 | 0.00 | 0.11 | 0.11 | 86 | 1011.1 |
| 20260904124559 | 67 | 261 | 6.0 | 15.0 | 0.00 | 0.11 | 0.11 | 85 | 1011.1 |
| 20260904124100 | 67 | 263 | 7.0 | 18.0 | 0.00 | 0.11 | 0.11 | 85 | 1010.7 |
| 20260904123600 | 67 | 280 | 7.0 | 17.0 | 0.01 | 0.11 | 0.11 | 85 | 1010.8 |
| 20260904123100 | 67 | 315 | 5.0 | 12.0 | 0.01 | 0.11 | 0.11 | 86 | 1010.7 |
| 20260904122559 | 67 | 257 | 7.0 | 15.0 | 0.02 | 0.11 | 0.11 | 87 | 1010.8 |
| 20260904121059 | 66 | 289 | 11.0 | 21.0 | 0.03 | 0.11 | 0.11 | 91 | 1010.8 |
| 20260904120059 | 66 | 266 | 7.0 | 14.0 | 0.04 | 0.11 | 0.11 | 93 | 1010.6 |
| 20260904115559 | 66 | 272 | 7.0 | 18.0 | 0.05 | 0.11 | 0.11 | 93 | 1010.6 |
| 20260904115059 | 66 | 271 | 9.0 | 17.0 | 0.05 | 0.11 | 0.11 | 93 | 1010.6 |
| 20260904113559 | 65 | 285 | 10.0 | 17.0 | 0.05 | 0.10 | 0.10 | 93 | 1010.3 |
| 20260904113100 | 65 | 269 | 7.0 | 12.0 | 0.06 | 0.10 | 0.10 | 93 | 1010.5 |
| 20260904112559 | 65 | 284 | 4.0 | 12.0 | 0.07 | 0.09 | 0.09 | 93 | 1010.2 |
| 20260904110059 | 65 | 278 | 6.0 | 13.0 | 0.07 | 0.07 | 0.07 | 92 | 1010.2 |
| 20260904105559 | 65 | 296 | 5.0 | 14.0 | 0.06 | 0.06 | 0.06 | 92 | 1010.2 |
| 20260904105100 | 65 | 275 | 5.0 | 12.0 | 0.06 | 0.06 | 0.06 | 92 | 1010.1 |
| 20260904104559 | 65 | 283 | 6.0 | 12.0 | 0.06 | 0.06 | 0.06 | 92 | 1010.2 |
| 20260904103100 | 66 | 306 | 7.0 | 12.0 | 0.04 | 0.04 | 0.04 | 87 | 1010.2 |
| 20260904102559 | 68 | 309 | 7.0 | 17.0 | 0.02 | 0.02 | 0.02 | 84 | 1010.1 |
| 20260904102100 | 71 | 307 | 11.0 | 20.0 | 0.00 | 0.00 | 0.00 | 86 | 1009.9 |
| 20260904093559 | 72 | 238 | 15.0 | 25.0 | 0.00 | 0.00 | 0.00 | 83 | 1009.6 |
| 20260904093100 | 72 | 251 | 13.0 | 24.0 | 0.00 | 0.00 | 0.00 | 83 | 1009.6 |
| 20260904090058 | 72 | 241 | 14.0 | 28.0 | 0.00 | 0.00 | 0.00 | 83 | 1009.6 |
| 20260904082558 | 72 | 237 | 11.0 | 26.0 | 0.00 | 0.00 | 0.00 | 83 | 1009.3 |
| 20260904082059 | 72 | 239 | 16.0 | 29.0 | 0.00 | 0.00 | 0.00 | 83 | 1009.3 |
| 20260904080059 | 71 | 230 | 16.0 | 29.0 | 0.00 | 0.00 | 0.00 | 84 | 1009.5 |
| 20260904075558 | 71 | 245 | 14.0 | 25.0 | 0.00 | 0.00 | 0.00 | 85 | 1009.3 |
| 20260904074559 | 71 | 228 | 12.0 | 29.0 | 0.00 | 0.00 | 0.00 | 85 | 1009.4 |
| 20260904074100 | 71 | 244 | 11.0 | 23.0 | 0.00 | 0.00 | 0.00 | 86 | 1009.5 |
| 20260904073558 | 71 | 244 | 12.0 | 29.0 | 0.00 | 0.00 | 0.00 | 85 | 1009.5 |
| 20260904073059 | 71 | 236 | 14.0 | 28.0 | 0.00 | 0.00 | 0.00 | 86 | 1009.8 |
| 20260904072559 | 70 | 249 | 14.0 | 25.0 | 0.00 | 0.00 | 0.00 | 86 | 1009.9 |
| 20260904072059 | 71 | 261 | 13.0 | 24.0 | 0.00 | 0.00 | 0.00 | 85 | 1009.9 |
| 20260904071558 | 71 | 236 | 12.0 | 29.0 | 0.00 | 0.00 | 0.00 | 85 | 1009.9 |
| 20260904071059 | 71 | 253 | 13.0 | 23.0 | 0.00 | 0.00 | 0.00 | 85 | 1009.9 |
| 20260904065559 | 71 | 250 | 13.0 | 31.0 | 0.00 | 0.00 | 0.00 | 84 | 1009.9 |
| 20260904062059 | 71 | 243 | 11.0 | 26.0 | 0.00 | 0.02 | 0.00 | 84 | 1009.8 |
| 20260904053558 | 70 | 258 | 13.0 | 28.0 | 0.00 | 0.04 | 0.00 | 85 | 1010.5 |
| 20260904052059 | 70 | 240 | 9.0 | 26.0 | 0.00 | 0.05 | 0.00 | 85 | 1010.5 |
| 20260904051559 | 70 | 240 | 12.0 | 30.0 | 0.00 | 0.05 | 0.00 | 85 | 1010.5 |
| 20260904045059 | 70 | 251 | 12.0 | 26.0 | 0.00 | 0.05 | 0.00 | 85 | 1010.8 |
| 20260904044558 | 70 | 256 | 10.0 | 20.0 | 0.00 | 0.05 | 0.00 | 86 | 1011.0 |
| 20260904044059 | 70 | 249 | 9.0 | 21.0 | 0.00 | 0.05 | 0.00 | 86 | 1011.1 |
| 20260904043558 | 70 | 227 | 9.0 | 26.0 | 0.00 | 0.05 | 0.00 | 86 | 1011.1 |
| 20260904043059 | 70 | 244 | 10.0 | 33.0 | 0.00 | 0.05 | 0.00 | 86 | 1011.2 |
| 20260904042559 | 70 | 248 | 12.0 | 26.0 | 0.00 | 0.05 | 0.00 | 86 | 1011.3 |
| 20260904040058 | 70 | 236 | 10.0 | 17.0 | 0.00 | 0.05 | 0.00 | 86 | 1011.7 |
| 20260904035558 | 70 | 223 | 8.0 | 21.0 | 0.00 | 0.05 | 0.00 | 86 | 1011.7 |
| 20260904035100 | 70 | 251 | 9.0 | 17.0 | 0.00 | 0.05 | 0.00 | 87 | 1011.7 |
| 20260904034558 | 70 | 255 | 7.0 | 20.0 | 0.00 | 0.05 | 0.00 | 87 | 1011.7 |
| 20260904034059 | 70 | 231 | 9.0 | 23.0 | 0.00 | 0.05 | 0.00 | 87 | 1011.8 |
| 20260904033559 | 70 | 237 | 5.0 | 20.0 | 0.00 | 0.05 | 0.00 | 87 | 1011.9 |
| 20260904033059 | 70 | 251 | 8.0 | 16.0 | 0.00 | 0.05 | 0.00 | 87 | 1012.0 |
| 20260904030058 | 70 | 240 | 9.0 | 16.0 | 0.00 | 0.05 | 0.00 | 87 | 1012.0 |
| 20260904024558 | 70 | 225 | 7.0 | 15.0 | 0.00 | 0.05 | 0.00 | 87 | 1012.2 |
| 20260904024059 | 70 | 256 | 6.0 | 13.0 | 0.00 | 0.05 | 0.00 | 87 | 1012.2 |
| 20260904023559 | 70 | 228 | 10.0 | 16.0 | 0.00 | 0.05 | 0.00 | 87 | 1012.2 |
| 20260904023058 | 70 | 230 | 7.0 | 18.0 | 0.00 | 0.05 | 0.00 | 87 | 1012.2 |
| 20260904022558 | 70 | 243 | 9.0 | 23.0 | 0.00 | 0.05 | 0.00 | 86 | 1012.6 |
| 20260904022059 | 70 | 254 | 10.0 | 20.0 | 0.00 | 0.05 | 0.00 | 87 | 1012.5 |
| 20260904021558 | 70 | 243 | 8.0 | 20.0 | 0.00 | 0.05 | 0.00 | 86 | 1012.5 |
| 20260904020059 | 70 | 263 | 6.0 | 15.0 | 0.00 | 0.05 | 0.00 | 87 | 1012.8 |
| 20260904014558 | 70 | 229 | 5.0 | 13.0 | 0.00 | 0.05 | 0.00 | 87 | 1013.0 |
| 20260904014059 | 70 | 240 | 7.0 | 16.0 | 0.00 | 0.05 | 0.00 | 87 | 1013.0 |
| 20260904013558 | 70 | 230 | 7.0 | 16.0 | 0.00 | 0.05 | 0.00 | 87 | 1013.2 |
| 20260904013058 | 70 | 231 | 8.0 | 15.0 | 0.00 | 0.05 | 0.00 | 87 | 1013.2 |
| 20260903232058 | 70 | 239 | 5.0 | 9.0 | 0.00 | 0.05 | 0.00 | 87 | 1014.3 |
| 20260903231558 | 70 | 248 | 4.0 | 10.0 | 0.00 | 0.05 | 0.00 | 87 | 1014.3 |
| 20260903230057 | 70 | 228 | 7.0 | 15.0 | 0.00 | 0.05 | 0.00 | 87 | 1014.8 |
| 20260903225558 | 70 | 233 | 5.0 | 13.0 | 0.00 | 0.05 | 0.00 | 87 | 1014.8 |
| 20260903225058 | 70 | 233 | 5.0 | 12.0 | 0.00 | 0.05 | 0.00 | 87 | 1014.8 |
| 20260903224557 | 70 | 250 | 6.0 | 15.0 | 0.00 | 0.05 | 0.00 | 87 | 1014.8 |
| 20260903224059 | 70 | 238 | 7.0 | 16.0 | 0.00 | 0.05 | 0.00 | 87 | 1014.8 |
| 20260903223558 | 70 | 241 | 5.0 | 13.0 | 0.00 | 0.05 | 0.00 | 87 | 1014.8 |
| 20260903223059 | 70 | 236 | 5.0 | 14.0 | 0.00 | 0.05 | 0.00 | 87 | 1014.8 |
| 20260903220058 | 70 | 247 | 6.0 | 15.0 | 0.00 | 0.05 | 0.00 | 87 | 1015.3 |
| 20260903215557 | 70 | 240 | 7.0 | 22.0 | 0.00 | 0.05 | 0.05 | 87 | 1015.3 |
| 20260903214557 | 70 | 236 | 7.0 | 15.0 | 0.00 | 0.05 | 0.05 | 87 | 1015.3 |
| 20260903214058 | 70 | 232 | 8.0 | 14.0 | 0.00 | 0.05 | 0.05 | 87 | 1015.3 |
| 20260903212058 | 70 | 244 | 5.0 | 15.0 | 0.00 | 0.05 | 0.05 | 87 | 1015.4 |
| 20260903211557 | 70 | 252 | 6.0 | 14.0 | 0.00 | 0.05 | 0.05 | 87 | 1015.4 |
| 20260903211058 | 70 | 238 | 6.0 | 20.0 | 0.00 | 0.05 | 0.05 | 87 | 1015.6 |
| 20260903204058 | 70 | 246 | 5.0 | 15.0 | 0.00 | 0.05 | 0.05 | 88 | 1016.0 |
| 20260903203557 | 70 | 233 | 5.0 | 12.0 | 0.00 | 0.05 | 0.05 | 88 | 1016.0 |
| 20260903203058 | 70 | 251 | 7.0 | 15.0 | 0.00 | 0.05 | 0.05 | 88 | 1016.1 |
| 20260903202557 | 70 | 241 | 7.0 | 12.0 | 0.00 | 0.05 | 0.05 | 88 | 1015.9 |
| 20260903201558 | 70 | 223 | 7.0 | 14.0 | 0.00 | 0.05 | 0.05 | 88 | 1016.2 |
| 20260903201058 | 70 | 233 | 6.0 | 13.0 | 0.00 | 0.05 | 0.05 | 87 | 1016.0 |
| 20260903193058 | 70 | 260 | 7.0 | 14.0 | 0.00 | 0.05 | 0.05 | 87 | 1016.2 |
| 20260903192557 | 70 | 228 | 6.0 | 13.0 | 0.00 | 0.05 | 0.05 | 87 | 1016.1 |
| 20260903192058 | 70 | 227 | 6.0 | 13.0 | 0.00 | 0.05 | 0.05 | 88 | 1016.0 |
| 20260903183058 | 70 | 258 | 5.0 | 13.0 | 0.00 | 0.05 | 0.05 | 87 | 1016.2 |
| 20260903182557 | 70 | 236 | 7.0 | 13.0 | 0.00 | 0.05 | 0.05 | 87 | 1016.3 |
| 20260903181058 | 71 | 240 | 5.0 | 17.0 | 0.00 | 0.05 | 0.05 | 86 | 1016.2 |
| 20260903174557 | 71 | 245 | 7.0 | 12.0 | 0.00 | 0.05 | 0.05 | 84 | 1016.3 |
| 20260903173557 | 71 | 244 | 5.0 | 12.0 | 0.00 | 0.05 | 0.05 | 83 | 1016.3 |
| 20260903173059 | 72 | 225 | 6.0 | 12.0 | 0.00 | 0.05 | 0.05 | 83 | 1016.5 |
| 20260903172557 | 72 | 246 | 4.0 | 10.0 | 0.00 | 0.05 | 0.05 | 82 | 1016.6 |
| 20260903172058 | 72 | 261 | 5.0 | 12.0 | 0.00 | 0.05 | 0.05 | 81 | 1016.5 |
| 20260903171557 | 72 | 339 | 3.0 | 8.0 | 0.00 | 0.05 | 0.05 | 81 | 1016.4 |
| 20260903171058 | 72 | 237 | 3.0 | 12.0 | 0.00 | 0.05 | 0.05 | 81 | 1016.4 |
| 20260903162557 | 72 | 248 | 7.0 | 20.0 | 0.00 | 0.05 | 0.05 | 80 | 1016.3 |
| 20260903162058 | 72 | 243 | 6.0 | 15.0 | 0.00 | 0.05 | 0.05 | 79 | 1016.6 |
| 20260903155557 | 73 | 242 | 7.0 | 12.0 | 0.00 | 0.05 | 0.05 | 79 | 1016.4 |
| 20260903155058 | 72 | 257 | 8.0 | 14.0 | 0.00 | 0.05 | 0.05 | 79 | 1016.4 |
| 20260903154557 | 72 | 240 | 8.0 | 13.0 | 0.00 | 0.05 | 0.05 | 79 | 1016.4 |
| 20260903154058 | 72 | 249 | 6.0 | 14.0 | 0.00 | 0.05 | 0.05 | 79 | 1016.4 |
| 20260903153557 | 73 | 247 | 6.0 | 17.0 | 0.00 | 0.05 | 0.05 | 78 | 1016.5 |
| 20260903152557 | 73 | 262 | 7.0 | 14.0 | 0.00 | 0.05 | 0.05 | 76 | 1016.6 |
| 20260903152058 | 73 | 299 | 7.0 | 17.0 | 0.00 | 0.05 | 0.05 | 75 | 1016.7 |
| 20260903151557 | 73 | 249 | 9.0 | 14.0 | 0.00 | 0.05 | 0.05 | 76 | 1016.8 |
| 20260903151057 | 73 | 254 | 7.0 | 20.0 | 0.00 | 0.05 | 0.05 | 76 | 1016.8 |
| 20260903145058 | 73 | 256 | 5.0 | 15.0 | 0.00 | 0.05 | 0.05 | 74 | 1016.6 |
| 20260903144557 | 73 | 271 | 6.0 | 15.0 | 0.00 | 0.05 | 0.05 | 75 | 1016.8 |
| 20260903144057 | 74 | 284 | 7.0 | 15.0 | 0.00 | 0.05 | 0.05 | 74 | 1016.7 |
| 20260903143558 | 74 | 267 | 7.0 | 20.0 | 0.00 | 0.05 | 0.05 | 74 | 1016.7 |
| 20260903142057 | 73 | 235 | 9.0 | 16.0 | 0.00 | 0.05 | 0.05 | 74 | 1016.5 |
| 20260903141557 | 73 | 283 | 8.0 | 18.0 | 0.00 | 0.05 | 0.05 | 74 | 1016.5 |